Location: Camp Crooked Creek
(37.9149°N, 85.6607°W)
Time: 09:39:13
(UTC-04:00)

Amateur Radio Satellites - All Passes

Search period start: 23 August 2017 09:09
Search period end: 24 August 2017 09:09
Location: Camp Crooked Creek, 37.9149°N, 85.6607°W

Satellite Date Start Highest point End Downlink Frequencies (MHz)
Time Altitude Azimuth
O/OREOS (USA 219) 23 Aug 09:12:51 09:16:09 21° 101° (E) 09:19:28 437.305
HO-68 23 Aug 09:16:59 09:24:11 87° 286° (WNW) 09:31:22 435.675
ISS 23 Aug 09:22:57 09:25:43 25° 132° (SE) 09:28:29 437.550
ZACube-1 23 Aug 09:23:05 09:26:38 24° 95° (E) 09:30:12 437.345
nSIGHT-1 23 Aug 09:27:41 09:30:35 30° 133° (SE) 09:33:30 .
UNISAT 6 23 Aug 09:37:31 09:39:07 12° 64° (ENE) 09:40:41 437.425
AO-73 23 Aug 09:42:19 09:46:18 35° 98° (E) 09:50:21 145.935
AAUSAT CUBESAT 2 23 Aug 09:44:10 09:48:21 77° 102° (ESE) 09:52:30 437.432
XW-2A 23 Aug 09:49:00 09:52:09 36° 286° (WNW) 09:55:18 145.665 - 145.685
CUTE-I 23 Aug 09:49:42 09:51:41 12° 300° (WNW) 09:53:39 437.470
NO-84 23 Aug 09:55:59 09:58:23 20° 232° (SW) 10:00:55 435.350 FM
RS-15 23 Aug 09:57:14 10:05:24 21° 99° (E) 10:13:36 29.354- 29.394
CUTE 1.7 + AOD 2 23 Aug 10:00:28 10:03:34 20° 292° (WNW) 10:06:39 437.475
TIGRISAT 23 Aug 10:09:41 10:13:10 25° 70° (ENE) 10:16:39 435.000
Oscar 11 23 Aug 10:24:06 10:28:29 79° 103° (ESE) 10:32:49 .
UWE-3 23 Aug 10:25:20 10:29:12 34° 288° (WNW) 10:33:08 435.000/436.395/437.385
DELFI C3 23 Aug 10:26:37 10:29:14 17° 93° (E) 10:31:49 145.870
PRISM 23 Aug 10:27:38 10:31:14 29° 70° (ENE) 10:34:51 437.425
JUGNU 23 Aug 10:30:46 10:31:27 10° 170° (S) 10:32:07 437.505
FO-29 23 Aug 10:31:16 10:38:52 76° 257° (WSW) 10:45:46 435.910
CUBEBUG 2 23 Aug 10:39:36 10:41:55 15° 293° (WNW) 10:44:16 437.445
Tancredo 1 23 Aug 10:42:04 10:43:38 13° 336° (NNW) 10:45:11 437.200
SEEDS 23 Aug 10:45:02 10:45:57 11° 296° (WNW) 10:46:51 437.485
O/OREOS (USA 219) 23 Aug 10:51:18 10:55:18 32° 297° (WNW) 10:59:21 437.305
ISS 23 Aug 10:59:08 11:02:06 31° 328° (NNW) 11:05:05 437.550
ZACube-1 23 Aug 10:59:12 11:02:50 27° 290° (WNW) 11:06:31 437.345
nSIGHT-1 23 Aug 11:04:06 11:06:57 27° 329° (NNW) 11:09:48 .
HO-68 23 Aug 11:06:52 11:10:54 16° 304° (NW) 11:14:54 435.675
M-CUBED/EXP-1 PRIME 23 Aug 11:07:02 11:09:53 17° 60° (ENE) 11:12:47 437.505
UNISAT 6 23 Aug 11:11:04 11:15:19 57° 260° (W) 11:19:32 437.425
Max Valier Satellite 23 Aug 11:12:51 11:16:26 47° 99° (E) 11:20:02 145.860
AIST 2D 23 Aug 11:12:51 11:14:07 12° 67° (ENE) 11:15:24 435.315
AO-73 23 Aug 11:19:15 11:22:16 19° 292° (WNW) 11:25:20 145.935
QB50P2 23 Aug 11:32:38 11:34:11 12° 64° (ENE) 11:35:43 145.880/145.840
EO-79 23 Aug 11:33:02 11:33:55 11° 64° (ENE) 11:34:48 145.935-145.965
TIGRISAT 23 Aug 11:46:12 11:49:46 25° 264° (W) 11:53:18 435.000
LO-87 23 Aug 11:50:36 11:51:38 11° 92° (E) 11:52:39 145.935 - 145.965
DUCHIFAT 1 23 Aug 11:57:50 12:00:25 16° 67° (ENE) 12:03:02 145.980
DELFI C3 23 Aug 12:00:31 12:04:02 31° 288° (WNW) 12:07:31 145.870
EO-88 23 Aug 12:00:56 12:04:29 48° 285° (WNW) 12:08:02 145.990 - 145.960
PRISM 23 Aug 12:03:23 12:06:29 20° 265° (W) 12:09:37 437.425
RS-15 23 Aug 12:03:53 12:16:07 88° 118° (ESE) 12:28:33 29.354- 29.394
JUGNU 23 Aug 12:16:59 12:19:34 13° 180° (S) 12:22:09 437.505
FO-29 23 Aug 12:22:22 12:24:33 11° 271° (W) 12:26:41 435.910
M-CUBED/EXP-1 PRIME 23 Aug 12:39:24 12:43:47 53° 256° (WSW) 12:48:22 437.505
NANOSAT C BR1 23 Aug 12:42:37 12:46:44 62° 74° (ENE) 12:50:52 145.865
AIST 2D 23 Aug 12:43:45 12:46:57 35° 262° (W) 12:50:11 435.315
Max Valier Satellite 23 Aug 12:49:08 12:49:49 10° 294° (WNW) 12:50:31 145.860
POLYITAN 1 23 Aug 12:49:55 12:54:05 86° 80° (E) 12:58:18 437.675
EO-79 23 Aug 13:04:58 13:09:07 62° 259° (WSW) 13:13:17 145.935-145.965
QB50P2 23 Aug 13:05:21 13:09:28 55° 260° (W) 13:13:36 145.880/145.840
SPROUT 23 Aug 13:08:20 13:10:54 16° 93° (E) 13:13:28 437.525
BUGSAT 1 23 Aug 13:20:51 13:24:38 37° 72° (ENE) 13:28:23 437.445
VELOX 1 23 Aug 13:21:31 13:24:29 18° 94° (E) 13:27:26 145.980
LO-87 23 Aug 13:21:56 13:25:12 36° 287° (WNW) 13:28:26 145.935 - 145.965
ESTCUBE 1 23 Aug 13:25:54 13:30:27 74° 284° (WNW) 13:34:57 437.505/2401.250
DUCHIFAT 1 23 Aug 13:31:53 13:35:46 37° 262° (W) 13:39:39 145.980
Gurwin Techsat 1B 23 Aug 13:48:43 13:52:59 25° 66° (ENE) 13:57:15 435.225
Oscar 19 23 Aug 13:51:43 13:56:29 40° 70° (ENE) 14:01:18 437.125/150
AO-7 23 Aug 13:56:29 13:58:06 11° 45° (NE) 13:59:43 .
RS-15 23 Aug 14:19:44 14:30:20 32° 323° (NW) 14:40:59 29.354- 29.394
SRMSAT 23 Aug 14:22:06 14:24:24 12° 176° (S) 14:26:42 437.500
UKube-1 23 Aug 14:23:07 14:25:29 14° 93° (E) 14:27:51 .
AO-85 23 Aug 14:25:37 14:29:45 42° 55° (NE) 14:34:11 145.980
BEESAT 3 23 Aug 14:32:16 14:36:16 79° 59° (ENE) 14:40:10 437.485
SPROUT 23 Aug 14:42:59 14:46:56 38° 288° (WNW) 14:50:52 437.525
DX 1 23 Aug 14:49:11 14:53:23 46° 100° (E) 14:57:32 434.975-435.025
BEESAT 2 23 Aug 14:52:43 14:56:34 40° 55° (NE) 15:00:21 435.950
VELOX 1 23 Aug 14:56:58 15:01:02 37° 289° (WNW) 15:05:04 145.980
BUGSAT 1 23 Aug 14:57:47 15:00:06 15° 267° (W) 15:02:25 437.445
50 SAT 23 Aug 15:14:26 15:17:40 44° 286° (WNW) 15:20:52 437.505
ITAMSAT 1 23 Aug 15:18:58 15:22:32 19° 64° (ENE) 15:26:07 435.822/435.867
Gurwin Techsat 1B 23 Aug 15:27:46 15:32:41 38° 262° (W) 15:37:38 435.225
Tancredo 1 23 Aug 15:29:21 15:32:06 39° 35° (NE) 15:34:50 437.200
Oscar 19 23 Aug 15:31:58 15:35:55 22° 266° (W) 15:39:54 437.125/150
YUBILEINY 23 Aug 15:32:03 15:38:50 26° 82° (E) 15:45:34 435.215
AO-7 23 Aug 15:40:56 15:48:57 53° 66° (ENE) 15:56:59 .
ISS 23 Aug 15:52:08 15:54:43 21° 28° (NNE) 15:57:18 437.550
nSIGHT-1 23 Aug 15:56:34 15:59:16 23° 29° (NNE) 16:01:57 .
BEESAT 23 Aug 15:57:23 16:00:37 18° 94° (E) 16:03:50 436.000
UKube-1 23 Aug 15:57:36 16:01:42 43° 288° (WNW) 16:05:45 .
AO-85 23 Aug 16:06:45 16:09:55 19° 248° (WSW) 16:13:14 145.980
SRMSAT 23 Aug 16:10:40 16:12:40 12° 186° (S) 16:14:41 437.500
DX 1 23 Aug 16:26:42 16:29:09 15° 295° (WNW) 16:31:35 434.975-435.025
BEESAT 2 23 Aug 16:31:31 16:33:57 16° 251° (WSW) 16:36:21 435.950
ITUPSAT 1 23 Aug 16:32:43 16:37:15 41° 99° (E) 16:41:45 437.325
RS-15 23 Aug 16:41:04 16:48:35 17° 358° (N) 16:55:59 29.354- 29.394
MOZHAYETS 4 23 Aug 16:51:31 16:56:06 60° 101° (E) 17:00:41
ITAMSAT 1 23 Aug 16:56:33 17:01:35 50° 260° (W) 17:06:38 435.822/435.867
DOVE 4 23 Aug 16:58:26 17:00:56 14° 64° (ENE) 17:03:25 437.250
Tancredo 1 23 Aug 17:05:20 17:07:01 14° 230° (SW) 17:08:40 437.200
CUBESAT XI-V 23 Aug 17:19:55 17:23:42 24° 95° (E) 17:27:27 437.345
YUBILEINY 23 Aug 17:26:12 17:34:53 63° 280° (W) 17:43:34 435.215
ISS 23 Aug 17:28:13 17:31:21 45° 224° (SW) 17:34:28 437.550
nSIGHT-1 23 Aug 17:32:41 17:35:42 37° 226° (SW) 17:38:42 .
BEESAT 23 Aug 17:34:03 17:38:33 43° 289° (WNW) 17:43:02 436.000
AO-7 23 Aug 17:34:39 17:41:55 33° 262° (W) 17:49:14 .
CUTE-I 23 Aug 17:50:16 17:53:00 14° 62° (ENE) 17:55:46 437.470
KAITUO 1B 23 Aug 18:06:30 18:07:25 11° 66° (ENE) 18:08:19 145.475/437.950
ITUPSAT 1 23 Aug 18:11:21 18:14:45 20° 294° (WNW) 18:18:07 437.325
KKS-1 23 Aug 18:17:47 18:21:58 40° 99° (E) 18:26:07 437.445
MOZHAYETS 4 23 Aug 18:30:36 18:32:43 13° 296° (WNW) 18:34:51
NUDT-PHONESAT 23 Aug 18:32:24 18:35:15 22° 70° (ENE) 18:38:08 437.300
DOVE 4 23 Aug 18:32:43 18:38:00 73° 259° (WSW) 18:43:09 437.250
LilacSat-2 23 Aug 18:37:24 18:40:55 38° 73° (ENE) 18:44:28 437.200
XW-2D 23 Aug 18:37:44 18:41:12 37° 73° (ENE) 18:44:43 145.860 - 145.880
STARS 23 Aug 18:47:45 18:51:44 34° 98° (E) 18:55:41 437.465
XW-2B 23 Aug 18:48:42 18:52:20 50° 74° (ENE) 18:56:00 145.730 - 145.750
RS-15 23 Aug 18:56:46 19:07:00 30° 34° (NE) 19:16:46 29.354- 29.394
CUBESAT XI-V 23 Aug 18:56:53 19:01:03 32° 290° (WNW) 19:05:11 437.345
XW-2C 23 Aug 19:07:49 19:11:34 86° 258° (WSW) 19:15:22 145.795 - 145.815
CUTE 1.7 + AOD 2 23 Aug 19:15:35 19:18:34 19° 68° (ENE) 19:21:35 437.475
XW-2F 23 Aug 19:17:24 19:21:07 68° 260° (W) 19:24:53 145.980 - 146.000
O/OREOS (USA 219) 23 Aug 19:23:27 19:27:30 31° 63° (ENE) 19:31:34 437.305
CUTE-I 23 Aug 19:27:03 19:32:24 72° 257° (WSW) 19:37:46 437.470
YUBILEINY 23 Aug 19:32:16 19:33:38 10° 302° (WNW) 19:34:58 435.215
KAITUO 1B 23 Aug 19:37:23 19:40:57 46° 261° (W) 19:44:34 145.475/437.950
HO-68 23 Aug 19:43:14 19:50:11 59° 70° (ENE) 19:57:11 435.675
UWE-3 23 Aug 19:46:36 19:48:11 12° 65° (ENE) 19:49:47 435.000/436.395/437.385
KKS-1 23 Aug 19:55:16 19:58:11 17° 294° (WNW) 20:01:05 437.445
SEEDS 23 Aug 19:56:23 20:00:11 33° 72° (ENE) 20:04:00 437.485
CUBEBUG 2 23 Aug 19:58:13 20:01:53 29° 71° (ENE) 20:05:30 437.445
NUDT-PHONESAT 23 Aug 20:06:16 20:09:02 20° 265° (W) 20:11:50 437.300
LilacSat-2 23 Aug 20:13:49 20:15:21 12° 268° (W) 20:16:55 437.200
XW-2D 23 Aug 20:13:55 20:15:32 12° 268° (W) 20:17:09 145.860 - 145.880
XW-2A 23 Aug 20:18:01 20:21:12 45° 75° (ENE) 20:24:25 145.665 - 145.685
ZACube-1 23 Aug 20:18:22 20:20:42 15° 66° (ENE) 20:23:02 437.345
STARS 23 Aug 20:24:41 20:27:49 20° 293° (WNW) 20:30:56 437.465
AAUSAT CUBESAT 2 23 Aug 20:32:13 20:36:04 38° 73° (ENE) 20:39:57 437.432
AO-73 23 Aug 20:36:43 20:39:50 21° 69° (ENE) 20:42:57 145.935
STRAND 1 23 Aug 20:44:30 20:49:20 42° 99° (E) 20:54:09 437.568
CUTE 1.7 + AOD 2 23 Aug 20:50:20 20:54:09 33° 263° (W) 20:58:00 437.475
O/OREOS (USA 219) 23 Aug 21:03:09 21:06:43 23° 258° (WSW) 21:10:17 437.305
RS-15 23 Aug 21:09:17 21:21:22 88° 60° (ENE) 21:32:45 29.354- 29.394
Oscar 11 23 Aug 21:16:51 21:20:57 46° 73° (ENE) 21:25:06 .
UWE-3 23 Aug 21:20:07 21:24:11 51° 260° (W) 21:28:15 435.000/436.395/437.385
HO-68 23 Aug 21:32:42 21:38:15 24° 266° (W) 21:43:51 435.675
SEEDS 23 Aug 21:33:02 21:35:55 18° 267° (W) 21:38:49 437.485
CUBEBUG 2 23 Aug 21:35:20 21:38:30 20° 265° (W) 21:41:37 437.445
PCSat 23 Aug 21:44:55 21:48:03 16° 104° (ESE) 21:51:12 145.827
FO-29 23 Aug 21:46:32 21:48:23 12° 89° (E) 21:50:12 435.910
Max Valier Satellite 23 Aug 21:50:56 21:53:15 16° 69° (ENE) 21:55:36 145.860
ZACube-1 23 Aug 21:52:44 21:56:38 40° 262° (W) 22:00:32 437.345
AAUSAT CUBESAT 2 23 Aug 22:09:09 22:11:38 15° 267° (W) 22:14:09 437.432
AO-73 23 Aug 22:12:23 22:15:55 27° 264° (W) 22:19:27 145.935
STRAND 1 23 Aug 22:24:24 22:28:11 22° 294° (WNW) 22:32:00 437.568
EO-88 23 Aug 22:36:26 22:39:56 48° 74° (ENE) 22:43:28 145.990 - 145.960
DELFI C3 23 Aug 22:43:04 22:47:03 74° 259° (WSW) 22:51:05 145.870
Oscar 11 23 Aug 22:55:10 22:57:19 13° 268° (W) 22:59:28 .
UNISAT 6 23 Aug 23:04:14 23:08:08 31° 97° (E) 23:12:05 437.425
SO-50 23 Aug 23:08:53 23:13:20 60° 117° (ESE) 23:17:46 436.795
Max Valier Satellite 23 Aug 23:23:43 23:26:51 27° 263° (W) 23:30:01 145.860
RS-15 23 Aug 23:24:03 23:32:04 22° 261° (W) 23:39:53 29.354- 29.394
PCSat 23 Aug 23:25:29 23:30:51 63° 299° (WNW) 23:36:15 145.827
FO-29 23 Aug 23:28:45 23:34:10 67° 286° (WNW) 23:39:17 435.910
TIGRISAT 23 Aug 23:38:01 23:42:22 72° 103° (ESE) 23:46:46 435.000
PRISM 23 Aug 23:45:04 23:49:08 60° 101° (E) 23:53:10 437.425
LO-87 23 Aug 23:55:32 23:59:03 59° 75° (ENE) 00:02:35 145.935 - 145.965
SPROUT 24 Aug 00:02:15 00:02:43 10° 63° (ENE) 00:03:13 437.525
AIST 2D 24 Aug 00:10:51 00:13:17 17° 94° (E) 00:15:41 435.315
VELOX 1 24 Aug 00:17:52 00:20:08 14° 64° (ENE) 00:22:23 145.980
M-CUBED/EXP-1 PRIME 24 Aug 00:22:14 00:23:44 12° 94° (E) 00:25:12 437.505
ESTCUBE 1 24 Aug 00:23:10 00:27:41 81° 75° (ENE) 00:32:13 437.505/2401.250
NANOSAT C BR1 24 Aug 00:30:56 00:32:05 11° 91° (E) 00:33:14 145.865
POLYITAN 1 24 Aug 00:37:34 00:40:07 15° 93° (E) 00:42:39 437.675
UNISAT 6 24 Aug 00:41:23 00:44:38 21° 292° (WNW) 00:47:56 437.425
SO-50 24 Aug 00:51:19 00:54:09 16° 315° (NW) 00:57:00 436.795
EO-79 24 Aug 00:51:43 00:55:04 23° 95° (E) 00:58:24 145.935-145.965
QB50P2 24 Aug 00:52:07 00:55:39 25° 96° (E) 00:59:09 145.880/145.840
NO-84 24 Aug 01:10:40 01:13:40 88° 306° (NW) 01:16:32 435.350 FM
PCSat 24 Aug 01:14:20 01:15:20 10° 319° (NW) 01:16:21 145.827
DUCHIFAT 1 24 Aug 01:17:13 01:21:04 35° 98° (E) 01:24:54 145.980
UKube-1 24 Aug 01:17:31 01:18:30 11° 63° (ENE) 01:19:29 .
PRISM 24 Aug 01:22:58 01:23:51 11° 296° (WNW) 01:24:44 437.425
SPROUT 24 Aug 01:33:48 01:38:01 67° 259° (WSW) 01:42:16 437.525
DX 1 24 Aug 01:42:54 01:46:47 32° 71° (ENE) 01:50:42 434.975-435.025
50 SAT 24 Aug 01:43:11 01:46:23 38° 74° (ENE) 01:49:35 437.505
AIST 2D 24 Aug 01:43:30 01:46:25 24° 289° (WNW) 01:49:19 435.315
VELOX 1 24 Aug 01:51:44 01:56:05 53° 260° (W) 02:00:28 145.980
M-CUBED/EXP-1 PRIME 24 Aug 01:54:24 01:58:31 50° 292° (WNW) 02:02:19 437.505
NANOSAT C BR1 24 Aug 02:03:58 02:08:04 53° 286° (WNW) 02:12:10 145.865
Oscar 19 24 Aug 02:06:08 02:09:18 16° 92° (E) 02:12:25 437.125/150
Gurwin Techsat 1B 24 Aug 02:09:44 02:10:00 10° 89° (E) 02:10:17 435.225
POLYITAN 1 24 Aug 02:12:06 02:16:02 38° 287° (WNW) 02:19:57 437.675
EO-79 24 Aug 02:27:14 02:30:46 26° 290° (WNW) 02:34:17 145.935-145.965
QB50P2 24 Aug 02:27:56 02:31:18 24° 291° (WNW) 02:34:41 145.880/145.840
BUGSAT 1 24 Aug 02:38:53 02:42:56 86° 107° (ESE) 02:46:58 437.445
UKube-1 24 Aug 02:49:38 02:53:56 67° 258° (WSW) 02:58:15 .
DUCHIFAT 1 24 Aug 02:53:39 02:56:26 18° 293° (WNW) 02:59:14 145.980
BEESAT 24 Aug 03:02:24 03:05:35 18° 65° (ENE) 03:08:45 436.000
DX 1 24 Aug 03:19:45 03:22:59 20° 265° (W) 03:26:16 434.975-435.025
ITUPSAT 1 24 Aug 03:37:39 03:42:03 40° 71° (ENE) 03:46:30 437.325
YUBILEINY 24 Aug 03:38:29 03:47:06 61° 79° (E) 03:55:39 435.215
Oscar 19 24 Aug 03:43:49 03:48:55 56° 287° (WNW) 03:53:58 437.125/150
Gurwin Techsat 1B 24 Aug 03:45:12 03:50:33 85° 284° (WNW) 03:55:51 435.225
AO-7 24 Aug 03:46:27 03:51:26 17° 92° (E) 03:56:23 .
MOZHAYETS 4 24 Aug 03:51:29 03:55:49 46° 73° (ENE) 04:00:10
BEESAT 3 24 Aug 04:20:55 04:23:48 19° 111° (ESE) 04:26:42 437.485
CUBESAT XI-V 24 Aug 04:21:51 04:25:10 20° 67° (ENE) 04:28:31 437.345
BEESAT 24 Aug 04:38:27 04:42:58 45° 261° (W) 04:47:31 436.000
AO-85 24 Aug 04:40:04 04:42:42 17° 111° (ESE) 04:45:18 145.980
BEESAT 2 24 Aug 04:45:30 04:45:58 10° 107° (ESE) 04:46:26 435.950
ITAMSAT 1 24 Aug 05:10:54 05:16:04 66° 102° (ESE) 05:21:11 435.822/435.867
KKS-1 24 Aug 05:14:05 05:17:59 30° 70° (ENE) 05:21:54 437.445
ITUPSAT 1 24 Aug 05:16:39 05:20:01 19° 266° (W) 05:23:23 437.325
Gurwin Techsat 1B 24 Aug 05:28:51 05:29:37 10° 301° (WNW) 05:30:23 435.225
MOZHAYETS 4 24 Aug 05:30:32 05:33:10 15° 268° (W) 05:35:50
YUBILEINY 24 Aug 05:36:25 05:43:11 26° 278° (W) 05:49:57 435.215
AO-7 24 Aug 05:36:44 05:45:06 88° 291° (WNW) 05:53:24 .
STARS 24 Aug 05:42:46 05:46:21 25° 69° (ENE) 05:49:57 437.465
BEESAT 3 24 Aug 05:57:29 06:01:07 33° 307° (NW) 06:04:48 437.485
CUBESAT XI-V 24 Aug 05:57:53 06:02:14 39° 262° (W) 06:06:37 437.345
BEESAT 2 24 Aug 06:19:11 06:23:08 60° 302° (WNW) 06:27:09 435.950
AO-85 24 Aug 06:19:12 06:22:48 33° 306° (NW) 06:26:22 145.980
PCSat 24 Aug 06:34:17 06:36:04 11° 42° (NE) 06:37:50 145.827
DOVE 4 24 Aug 06:34:18 06:38:16 32° 96° (E) 06:42:03 437.250
XW-2C 24 Aug 06:44:10 06:45:21 11° 92° (E) 06:46:33 145.795 - 145.815
KKS-1 24 Aug 06:51:01 06:54:31 22° 265° (W) 06:58:02 437.445
ITAMSAT 1 24 Aug 06:52:07 06:54:56 15° 298° (WNW) 06:57:43 435.822/435.867
XW-2F 24 Aug 06:52:31 06:54:30 14° 93° (E) 06:56:28 145.980 - 146.000
KAITUO 1B 24 Aug 07:10:46 07:13:26 18° 94° (E) 07:16:06 145.475/437.950
STARS 24 Aug 07:18:52 07:22:35 26° 264° (W) 07:26:17 437.465
AO-7 24 Aug 07:31:21 07:36:43 19° 307° (NW) 07:42:05 .
NUDT-PHONESAT 24 Aug 07:37:08 07:40:40 37° 98° (E) 07:44:10 437.300
SO-50 24 Aug 07:41:46 07:45:56 33° 52° (NE) 07:50:07 436.795
NO-84 24 Aug 07:45:18 07:47:43 22° 37° (NE) 07:50:15 435.350 FM
XW-2D 24 Aug 07:45:26 07:49:18 75° 101° (ESE) 07:53:08 145.860 - 145.880
CUTE-I 24 Aug 07:45:55 07:51:06 52° 100° (E) 07:56:15 437.470
LilacSat-2 24 Aug 07:45:56 07:49:49 79° 100° (E) 07:53:42 437.200
Tancredo 1 24 Aug 07:54:34 07:56:49 20° 132° (SE) 07:59:04 437.200
XW-2B 24 Aug 07:56:36 08:00:29 82° 281° (W) 08:04:19 145.730 - 145.750
STRAND 1 24 Aug 07:58:32 08:03:27 50° 72° (ENE) 08:08:23 437.568
DOVE 4 24 Aug 08:12:32 08:15:42 20° 293° (WNW) 08:18:46 437.250
PCSat 24 Aug 08:15:01 08:20:27 70° 61° (ENE) 08:25:50 145.827
XW-2C 24 Aug 08:16:04 08:19:44 44° 286° (WNW) 08:23:24 145.795 - 145.815
XW-2F 24 Aug 08:25:12 08:28:44 36° 287° (WNW) 08:32:15 145.980 - 146.000
ISS 24 Aug 08:32:08 08:33:40 13° 128° (SE) 08:35:12 437.550
nSIGHT-1 24 Aug 08:35:05 08:37:00 15° 129° (SE) 08:38:54 .
CUTE 1.7 + AOD 2 24 Aug 08:36:20 08:40:29 45° 99° (E) 08:44:35 437.475
KAITUO 1B 24 Aug 08:44:11 08:47:24 26° 289° (WNW) 08:50:36 145.475/437.950
